CDT,Max TemperatureF,Mean TemperatureF,Min TemperatureF,Max Dew PointF,MeanDew PointF,Min DewpointF,Max Humidity, Mean Humidity, Min Humidity, Max Sea Level PressureIn, Mean Sea Level PressureIn, Min Sea Level PressureIn, Max VisibilityMiles, Mean VisibilityMiles, Min VisibilityMiles, Max Wind SpeedMPH, Mean Wind SpeedMPH, Max Gust SpeedMPH,PrecipitationIn, CloudCover, Events, WindDirDegrees
2014-3-1,3,-5,-14,-4,-13,-27,85,64,45,30.34,30.21,30.00,10,7,1,15,10,20,0.00,6,,288
2014-3-2,3,-8,-18,-13,-20,-29,77,55,43,30.36,30.33,30.29,10,10,10,15,9,18,0.00,0,,263
2014-3-3,15,-5,-25,5,-9,-27,100,63,38,30.38,30.29,30.18,10,9,2,13,4,,0.00,3,,254
2014-3-4,15,1,-13,3,-2,-26,100,72,45,30.31,30.17,30.13,10,9,1,10,3,,0.00,4,,295
2014-3-5,15,0,-16,3,-7,-27,100,64,44,30.47,30.38,30.30,10,10,9,12,3,20,0.00,0,,82
2014-3-6,30,18,6,18,8,-9,73,59,44,30.30,30.03,29.77,10,10,9,23,12,32,0.00,2,,189
2014-3-7,28,24,19,25,20,10,93,77,59,30.13,29.85,29.72,10,5,1,15,9,22,0.00,8,,289
2014-3-8,23,14,5,12,8,-2,92,70,50,30.23,30.15,30.03,10,9,4,9,4,,0.00,6,,289
2014-3-9,41,29,17,28,19,5,70,60,52,30.03,29.70,29.54,10,10,10,21,10,29,0.00,,,219
2014-3-10,51,40,30,34,27,25,81,58,37,29.58,29.50,29.43,10,10,10,22,10,29,0.00,,,253
2014-3-11,44,32,19,27,23,12,75,63,46,29.95,29.75,29.58,10,10,4,17,9,25,0.00,7,,327
2014-3-12,15,8,-2,9,-1,-13,92,64,52,30.08,30.03,29.95,10,10,4,15,8,22,0.00,2,,30
2014-3-13,42,19,-4,30,14,-13,92,58,44,29.95,29.68,29.41,10,10,10,16,8,31,0.00,4,,205
2014-3-14,39,31,23,32,28,18,87,79,70,29.81,29.49,29.34,10,7,1,18,11,26,0.00,6,,279
2014-3-15,21,9,-7,18,5,-17,86,70,45,30.41,30.13,29.82,10,7,1,13,6,18,0.00,5,,7
2014-3-16,24,3,-18,3,-9,-27,100,57,22,30.45,30.30,29.98,10,10,10,13,1,,0.00,0,,183
2014-3-17,24,20,15,18,9,-6,74,63,35,29.98,29.74,29.63,10,9,2,17,9,26,0.00,8,,170
2014-3-18,32,26,21,28,21,16,93,81,69,29.82,29.78,29.72,10,6,0,12,6,,0.00,8,,88
2014-3-19,30,28,26,27,24,21,93,85,74,29.83,29.75,29.70,10,4,1,15,5,18,0.00,8,,315
2014-3-20,35,26,17,23,19,12,93,69,44,29.94,29.89,29.83,10,10,3,9,6,,0.10,5,,285
2014-3-21,35,25,15,30,23,9,93,80,56,29.90,29.80,29.68,10,6,0,13,3,21,0.04,5,,85
2014-3-22,26,17,6,25,6,0,86,72,57,30.34,30.18,29.90,10,6,0,21,14,29,0.00,8,,307
2014-3-23,15,5,-5,3,-3,-11,100,70,49,30.35,30.31,30.23,10,10,5,14,6,20,0.00,2,,265
2014-3-24,24,6,-11,12,-2,-24,100,62,39,30.23,30.06,29.91,10,10,1,18,7,25,0.00,3,,270
2014-3-25,17,12,6,9,0,-4,79,61,49,30.08,30.02,29.93,10,7,0,20,14,25,0.00,7,,295
2014-3-26,30,13,-4,16,3,-13,92,55,36,30.07,29.94,29.69,10,10,2,15,6,22,0.00,4,,182
2014-3-27,35,30,26,34,25,16,93,78,55,29.67,29.57,29.51,10,4,0,14,7,23,0.09,8,,94
2014-3-28,30,24,19,21,16,10,86,66,47,30.19,29.96,29.64,10,10,5,12,7,18,0.10,4,,338
2014-3-29,41,28,15,21,16,9,93,57,38,30.23,30.17,30.06,10,10,5,9,2,,0.00,3,,182
2014-3-30,51,42,33,30,26,19,65,52,41,30.06,29.91,29.85,10,10,10,22,11,37,0.00,1,,181
2014-3-31,51,46,42,37,32,28,76,59,47,29.90,29.69,29.41,10,10,9,16,9,24,0.01,6,Thunderstorm,115